Regional Weather Roundup
Issued by NWS

Home | Current Version | Previous Version | Text Only | Print | Product List | Glossary Off
Versions: 1 2 3 4 5 6 7 8 9 10 11 12 13 14 15 16 17 18 19 20 21 22 23 24 25 26 27 28 29 30 31 32 33 34 35 36 37 38 39 40 41 42 43 44 45 46 47 48 49 50

000
ASUS43 KLSX 292207
RWRMO

WEATHER SUMMARY FOR MISSOURI
NATIONAL WEATHER SERVICE SPRINGFIELD MO
500 PM CDT TUE JUL 29 2014

NOTE: "FAIR" INDICATES FEW OR NO CLOUDS BELOW 12,000 FEET WITH NO
       SIGNIFICANT WEATHER AND/OR OBSTRUCTIONS TO VISIBILITY.
       CURRENT SKY AND/OR WEATHER CONDITIONS ARE NOT AVAILABLE FOR
       CHILLICOTHE AND FARMINGTON.

MOZ001>031-035>038-043-044-053-054-292300-
...NORTHERN AND WESTERN MISSOURI...

CITY           SKY/WX    TMP DP  RH WIND       PRES   REMARKS
KANSAS CTY INT PTSUNNY   82  59  45 N8        30.12F
KANSAS C DTWN  MOSUNNY   83  56  39 N9        30.10F
LEE`S SUMMIT   MOSUNNY   81  56  42 VRB3      30.12F
ST JOSEPH      MOSUNNY   79  61  53 N8        30.12F
CHILLICOTHE      N/A     80  56  43 VRB3      30.13F
KIRKSVILLE     MOSUNNY   79  55  43 VRB6      30.12F

$$
MOZ066>068-077>081-088>096-101>105-292300-
...SOUTHWEST MISSOURI...

CITY           SKY/WX    TMP DP  RH WIND       PRES   REMARKS
SPRINGFIELD    PTSUNNY   82  53  36 NW7       30.13F
JOPLIN         PTSUNNY   80  58  46 W7        30.14F

$$
MOZ032>034-039>042-045>050-055>058-069>072-292300-
...CENTRAL MISSOURI...

CITY           SKY/WX    TMP DP  RH WIND       PRES   REMARKS
COLUMBIA       MOSUNNY   80  53  39 N9        30.12F
JEFFERSON CITY MOSUNNY   81  53  37 N8        30.10F
ROLLA          PTSUNNY   80  52  37 N7        30.11F
SEDALIA        MOSUNNY   82  58  43 N9        30.12F
WHITEMAN AFB   MOSUNNY   80  47  30 N8        30.11F
OSAGE BEACH    MOSUNNY   82  54  36 NW6       30.11F

$$
MOZ051-052-059>065-292300-
...EAST CENTRAL MISSOURI...

CITY           SKY/WX    TMP DP  RH WIND       PRES   REMARKS
ST LOUIS INTL  MOSUNNY   81  56  42 NW9       30.11F
SPIRIT OF STL  PTSUNNY   80  53  39 VRB6      30.09F
ST CHARLES     SUNNY     80  56  43 NW9       30.10F

$$
MOZ072>076-082>087-097>100-106>115-292300-
...SOUTH CENTRAL AND SOUTHEAST MISSOURI...

CITY           SKY/WX    TMP DP  RH WIND       PRES   REMARKS
CAPE GIRARDEAU SUNNY     79  51  37 VRB5      30.11F
FARMINGTON     MOSUNNY   79  54  41 N5        30.14S
POPLAR BLUFF   SUNNY     80  53  39 MISG      30.10F
WEST PLAINS    PTSUNNY   80  53  39 VRB3      30.14F

$$


USA.gov is the U.S. government's official web portal to all federal, state and local government web resources and services.